Location: Baix
(44.7118°N, 4.7648°E)
Time: 19:24:08
(UTC+00:00)

Cosmos 2098 Rocket - Pass Details

Date: 07 August 2020
Orbit: 367 x 1184 km, 82.9° (Epoch: 24 September)

Event Time Altitude Azimuth Distance (km) Brightness Sun altitude
Rises 02:49:20 0° 346° (NNW) 2,951 7.0 -16.2°
Reaches altitude 10° 02:51:25 10° 341° (NNW) 2,152 6.1 -15.9°
Maximum altitude 02:56:07 52° 266° (W) 1,006 3.8 -15.3°
Enters shadow 03:00:54 15° 195° (SSW) 2,279 5.5 -14.7°
